Web Car-Videos.com

 

Car-videos.com

Videos
Performance Statistics
Unit Converter
Horsepower & Torque
Speed/RPM Calculator
Tires
FAQ
Contact Us
Updates and News Feed
Advertise with Us!  new!
Link to Us


Add to My AOL

Subscribe in NewsGator Online








Performance Home  |  List of all Cars  |  Custom Statistics  |  Tracks

Laguna Seca Raceway
Laguna Seca, California
2.21 Miles

The first lap time is from a dead stop and the 2nd is taken when the car passes the starting line at the end of the 1st lap.

Car First Lap Second Lap
1.1998 Mercedes-Benz CLK-GTR (6M)1:59.11:56.2
2.2002 Chevrolet Corvette Z06 (6M)2:09.12:03.7
3.1993 Mazda RX-7 Twin Turbo (5M)2:12.02:06.8
4.1999 Chevrolet Corvette LS1 Hardtop (6M)2:12.82:07.4
5.2001 BMW M5 (6M)2:13.62:09.2
6.1995 Acura NSX (5M)2:14.82:10.5
7.1994 Toyota Supra Turbo (6M)2:16.12:10.4
8.2002 Maserati Spyder Cambiocorsa (6MAT)2:16.22:11.1
9.2001 Jaguar XKR (5A)2:16.22:11.3
10.2004 Subaru Impreza WRX STi (USA) (6M)2:16.62:11.8
11.1998 Chevrolet Camaro Z28 (6M)2:16.72:11.0
12.2004 Mercedes-Benz E 55 AMG (5A)2:17.72:13.6
13.2003 Nissan 350Z Track (6M)2:17.82:12.9
14.2003 Infiniti G35 Coupe (6M)2:17.92:12.7
15.1996 Aston Martin DB7 (5M)2:17.92:13.3
16.1987 Buick Regal Grand National GNX (4A)2:18.62:13.6
17.2003 Dodge Neon SRT-4 (5M)2:19.02:15.2
18.2004 Mazda RX-8 (6M)2:19.02:13.5
19.2002 Acura RSX Type-R (Jap) (6M)2:19.42:13.4
20.1994 BMW 850 CSi (6M)2:19.52:14.5
21.2002 Audi S8 Quattro (5A)2:20.12:15.0
22.2003 BMW 330 Ci Coupe (5M)2:20.42:14.1
23.2005 Acura RSX Type-S (6M)2:20.52:14.3
24.2003 Acura 3.2TL Type-S (5A)2:20.52:14.9
25.2004 Infiniti FX45 (5A)2:21.72:17.1
26.2002 Subaru Impreza WRX Sedan (4A)2:23.22:18.3
27.2001 Mazda Miata (5M)2:23.32:17.8
28.2003 Lexus LS430 (5A)2:23.42:18.0
29.2000 Audi TT Coupe 180HP (5M)2:23.42:19.8
30.2002 Nissan Sentra SE-R Spec V (6M)2:23.52:17.8
31.2002 Nissan Sentra SE-R (5M)2:23.52:17.8
32.1996 Chevrolet Camaro V6 (3.8) (4A)2:24.02:17.9
33.2001 Lexus IS 300 (5A)2:24.12:18.7
34.1967 Maserati Ghibli (5M)2:24.12:18.9
35.2002 MINI Cooper S (6M)2:24.12:18.0
36.1994 Chevrolet Impala SS (4A)2:24.32:17.9
37.1995 Volvo 850 T-5R (4A)2:24.42:19.7
38.1989 Toyota Supra Turbo (5M)2:24.42:18.4
39.2000 Subaru Impreza 2.5 RS Sedan (5M)2:25.42:20.6
40.1998 Mercedes-Benz E 320 AWD (5A)2:25.92:21.0
41.2002 Acura RSX Type-S (6M)2:26.02:19.7
42.2003 Mazda 6 s (5M)2:26.42:20.1
43.2002 Subaru Impreza 2.5 RS (5M)2:26.42:21.4
44.2001 Dodge Neon R/T (5M)2:26.92:20.7
45.2000 Honda Civic SI (5M)2:26.92:21.3
46.1999 Volvo V70 R AWD (4A)2:26.92:22.2
47.2003 Mazda 6 s (5A)2:27.22:20.6
48.2002 Mazda Protégé MP3 (5M)2:27.22:21.6
49.1999 Pontiac Grand Am GT (4A)2:27.62:21.7
50.2003 Nissan Murano SL AWD (CVT)2:28.02:22.5
51.2003 Dodge Stratus R/T 2.7 Sedan (5M)2:28.42:22.4
52.2003 Cadillac CTS (5M)2:28.62:23.3
53.2004 Harley-Davidson Sportster 1200 Roadster (5M)2:28.62:24.1
54.2001 Audi A6 4.2 Quattro (5A)2:28.92:25.1
55.1997 Hyundai Tiburon FX (5M)2:29.22:23.3
56.1990 Chevrolet Beretta GT (5M)2:29.42:23.9
57.1981 Delorean DMC-12 (5M)2:29.52:22.8
58.1990 Ford Probe GT (5M)2:29.72:24.1
59.2001 Chrysler PT Cruiser (5M)2:29.82:24.0
60.1991 Ford Escort GT (5M)2:29.82:23.2
61.2003 Honda Accord EX 2.4 Sedan (5M)2:30.72:25.1
62.1984 Toyota Supra (5M)2:30.82:25.0
63.2001 Ford Focus ZX3 (5M)2:31.02:24.9
64.2001 Chevrolet Monte Carlo SS (4A)2:31.22:25.2
65.1991 Toyota MR2 (5M)2:31.42:24.7
66.2000 Jeep Grand Cherokee V8 Limited 2WD (4A)2:31.52:25.4
67.2003 Subaru Forester 2.5X (5M)2:32.42:26.0
68.1996 Honda Civic EX Sedan (4A)2:32.52:25.7
69.1986 Toyota MR2 (5M)2:32.72:27.2
70.2000 Jeep Grand Cherokee V8 Limited 4WD (4A)2:33.12:27.4
71.2002 Volkswagen Passat GLX 4Motion (5A)2:33.52:27.1
72.2001 Pontiac Sunfire SE Sedan (5M)2:33.62:27.9
73.2003 Honda Element EX 2WD (5M)2:33.72:27.1
74.2002 Honda CR-V EX (5M)2:34.72:29.0
75.1999 Lexus RX300 (4A)2:35.12:28.4
76.2003 Honda Pilot EX (5A)2:35.42:30.2
77.2001 Subaru Forester L (4A)2:35.42:29.3
78.2002 Mitsubishi Lancer O-Z Rally (5M)2:38.92:33.6
79.1992 Chevrolet Lumina Euro (4A)2:38.92:33.4
80.2002 Jeep Liberty Limited 4x4 (4A)2:39.12:33.9
81.2003 Lincoln Navigator (4A)2:41.62:35.4
82.1979 Dodge Omni O24 (4M)2:42.42:35.1
83.1987 Yugo GV (4M)2:48.02:40.7
84.1979 Cadillac Seville Diesel (3A)2:53.72:46.6